Normandy Observed Data For Previous 48 Hours

Caption
Day and Hour Reservoir Elevation (behind dam)* Tailwater Elevation (below dam)* Average Hourly Discharge*
4/17/2018 1 AM CDT 873.84 790.80 360
4/17/2018 2 AM CDT 873.84 790.80 360
4/17/2018 3 AM CDT 873.85 790.79 360
4/17/2018 4 AM CDT 873.86 790.80 360
4/17/2018 5 AM CDT 873.86 790.79 360
4/17/2018 6 AM CDT 873.86 790.79 360
4/17/2018 7 AM CDT 873.87 790.80 360
4/17/2018 8 AM CDT 873.87 790.79 360
4/17/2018 9 AM CDT 873.88 790.80 360
4/17/2018 10 AM CDT 873.88 790.80 360
4/17/2018 11 AM CDT 873.89 790.80 360
4/17/2018 12 PM CDT 873.89 790.79 360
4/17/2018 1 PM CDT 873.89 790.80 360
4/17/2018 2 PM CDT 873.89 790.80 360
4/17/2018 3 PM CDT 873.89 790.80 360
4/17/2018 4 PM CDT 873.90 790.80 360
4/17/2018 5 PM CDT 873.91 790.80 360
4/17/2018 6 PM CDT 873.91 790.81 360
4/17/2018 7 PM CDT 873.92 790.79 360
4/17/2018 8 PM CDT 873.91 790.79 360
4/17/2018 9 PM CDT 873.92 790.79 360
4/17/2018 10 PM CDT 873.92 790.79 360
4/17/2018 11 PM CDT 873.92 790.79 360
4/18/2018 12 AM CDT 873.92 790.79 360
4/18/2018 1 AM CDT 873.92 790.79 360
4/18/2018 2 AM CDT 873.93 790.79 360
4/18/2018 3 AM CDT 873.92 790.79 360
4/18/2018 4 AM CDT 873.93 790.80 360
4/18/2018 5 AM CDT 873.92 790.79 360
4/18/2018 6 AM CDT 873.94 790.79 360
4/18/2018 7 AM CDT 873.93 790.79 360
4/18/2018 8 AM CDT 873.93 790.79 360
4/18/2018 9 AM CDT 873.93 790.79 360
4/18/2018 10 AM CDT 873.93 790.79 360
4/18/2018 11 AM CDT 873.93 790.79 360
4/18/2018 12 PM CDT 873.95 790.79 360
4/18/2018 1 PM CDT 873.95 790.80 360
4/18/2018 2 PM CDT 873.93 790.79 360
4/18/2018 3 PM CDT 873.93 790.79 360
4/18/2018 4 PM CDT 873.94 790.79 360
4/18/2018 5 PM CDT 873.93 790.78 360
4/18/2018 6 PM CDT 873.93 790.79 360
4/18/2018 7 PM CDT 873.96 790.80 360
4/18/2018 8 PM CDT 873.93 790.78 360
4/18/2018 9 PM CDT 873.93 790.79 360
4/18/2018 10 PM CDT 873.93 790.78 360
4/18/2018 11 PM CDT 873.92 790.80 360
4/19/2018 12 AM CDT 873.93 790.79 360
4/19/2018 1 AM CDT 873.93 790.78 360
4/19/2018 2 AM CDT 873.94 790.79 360
4/19/2018 3 AM CDT 873.93 790.79 360
4/19/2018 4 AM CDT 873.93 790.79 360
4/19/2018 5 AM CDT 873.93 790.79 360
4/19/2018 6 AM CDT 873.93 790.78 360
4/19/2018 7 AM CDT 873.93 790.78 360
4/19/2018 8 AM CDT 873.93 790.78 360
4/19/2018 9 AM CDT 873.92 790.87 360
4/19/2018 10 AM CDT 873.93 790.80 360
4/19/2018 11 AM CDT 873.93 790.79 360
4/19/2018 12 PM CDT 873.90 790.79 360
4/19/2018 1 PM CDT 873.93 790.79 360
4/19/2018 2 PM CDT 873.91 790.79 360
4/19/2018 3 PM CDT 873.91 790.78 360
4/19/2018 4 PM CDT 873.91 790.78 360
4/19/2018 5 PM CDT 873.90 790.77 360
4/19/2018 6 PM CDT 873.91 790.78 360
4/19/2018 7 PM CDT 873.91 790.79 360

Elevations are in feet above sea level. Discharges are in cubic feet per second and are reported at the end of the hour.